C/2006 V1 ( Catalina )

Japanese version
Home page
Total 6,336 html files since Dec. 4, 1995
Updated on May 25, 2008

---------------------------------------------------------------------

* Profile

Discovery Date November 11, 2006
Magnitude 18.5 mag
Discoverer Catalina Sky Survey

* Pictures

* Orbital Elements

Epoch 2007 Dec. 6.0 TT = JDT 2454440.5
T 2007 Nov. 26.54598 TT                                 MPC
q   2.6747715            (2000.0)            P               Q
z  +0.0038330      Peri.  253.41389     -0.59756071     +0.77315270
 +/-0.0000019      Node   335.72190     -0.38148328     -0.50723939
e   0.9897477      Incl.   31.11933     -0.70526003     -0.38071395

* Finding Charts

* Magnitudes Graph

        m1 = 8.2 + 5 log d + 10.0 log r

---------------------------------------------------------------------

The orbital elements are published on M.P.E.C. 2008-F27.
The charts are made with StellaNavigator Ver.2.0 for Windows (AstroArts / ASCII).
The magnitudes graphs are made with Comet for Windows.

---------------------------------------------------------------------

Copyright(C) 1995-2008 Seiichi Yoshida (comet@aerith.net). All rights reserved.